GFSCGP_925_spd_336.txt.gz
Wind_Speed
23 18 21 29 26 24 22 12 19 14 13 4 17 23 17 14 9 8 9 11 11 13 14 20 29 38 40 40 42 44 43 46 44 40 36 34 34 31 28 25 23 22 20 18
21 26 27 28 22 21 19 22 21 7 8 13 18 22 7 11 16 17 14 11 11 8 8 9 23 30 38 42 42 43 45 48 46 44 40 31 36 31 29 26 23 22 20 18
23 28 27 23 21 21 22 22 22 15 3 13 3 18 12 6 7 8 12 17 10 10 11 9 11 25 28 34 42 43 43 46 46 43 40 27 31 25 26 27 26 24 21 18
17 21 18 24 28 23 23 21 23 14 7 15 8 16 15 14 16 17 18 10 10 10 9 11 17 17 28 35 38 41 42 43 45 44 41 38 33 22 25 32 28 24 21 18
8 5 27 19 26 27 20 20 18 14 16 14 10 8 12 8 16 20 19 14 17 18 17 18 18 29 40 34 41 42 42 41 43 44 42 40 34 32 26 29 26 24 21 18
24 18 4 9 13 18 19 6 16 16 12 16 23 16 21 13 19 12 19 17 19 20 20 18 23 26 24 30 36 41 41 39 41 43 42 41 38 32 26 29 28 25 22 20
16 23 21 12 9 10 14 13 9 11 13 14 13 13 21 10 18 20 20 21 18 19 19 17 15 15 21 26 30 33 34 33 39 41 40 39 35 33 29 31 30 27 24 23
6 8 14 16 22 14 11 16 9 12 4 6 5 9 12 15 22 17 12 13 7 9 10 14 16 16 21 27 31 30 31 32 38 39 36 32 30 30 28 29 28 27 24 21
4 7 1 8 9 13 7 13 11 3 3 3 4 5 8 6 10 13 15 8 17 17 9 8 10 13 21 25 28 32 33 32 37 37 33 30 28 25 26 24 23 22 20 18
2 9 3 1 6 4 8 5 2 3 12 13 5 3 5 9 10 12 12 10 9 6 5 7 8 10 17 23 26 30 32 35 36 32 30 28 25 23 22 21 20 19 18 18
4 6 4 8 7 13 6 7 3 3 5 3 2 6 9 15 5 7 9 8 7 5 6 6 7 9 16 22 25 28 31 33 33 30 27 25 23 21 20 20 19 19 18 18
6 5 3 2 3 1 4 8 11 5 5 3 4 6 1 0 3 3 11 8 2 4 6 8 9 9 14 17 22 26 27 29 27 25 24 23 21 20 20 20 19 19 18 18
4 2 4 4 2 3 3 4 5 3 3 7 4 6 5 4 5 5 5 3 3 4 6 7 9 8 8 15 19 24 21 24 24 23 22 21 20 20 20 19 18 18 18 18
7 4 2 3 4 1 3 2 2 10 5 5 7 12 6 5 4 7 4 3 5 5 5 6 7 8 10 16 18 19 19 17 18 18 18 18 18 19 18 17 17 16 16 16
4 5 2 5 6 3 3 3 3 7 9 6 5 4 5 4 4 6 4 2 5 6 8 5 6 7 9 14 18 15 15 15 13 13 14 14 14 15 15 15 15 15 15 15
5 4 3 4 2 1 1 5 5 4 4 6 6 9 7 3 1 3 7 6 8 8 6 7 7 7 8 14 14 20 15 13 13 12 12 12 12 12 12 12 13 14 15 14
4 2 4 4 4 3 4 5 4 3 7 4 5 6 11 7 5 2 4 4 6 8 9 9 9 7 9 16 22 18 17 13 12 11 11 10 9 10 10 11 12 13 15 15
7 2 1 3 3 3 4 2 2 5 3 5 4 8 9 9 9 6 5 3 5 5 5 6 8 9 13 15 19 18 18 14 12 11 11 10 9 8 7 8 9 10 11 12
14 4 3 1 1 3 3 5 3 3 3 6 8 11 7 9 7 4 9 8 6 5 3 5 14 16 17 17 17 18 17 15 13 13 12 10 9 8 8 8 8 8 9 10
2 4 2 1 2 2 1 5 4 2 2 5 2 10 9 12 4 3 10 8 8 6 8 10 15 19 19 17 17 15 14 15 13 11 9 8 7 7 7 6 5 7 9 8
3 2 3 3 3 2 3 10 2 2 4 10 6 5 6 4 2 6 8 7 6 7 10 17 16 15 14 15 14 12 11 8 8 7 6 6 6 6 6 6 8 8 7 7
4 3 2 2 3 2 14 1 4 3 4 4 5 4 4 5 5 4 5 4 6 7 10 11 13 13 13 10 10 9 9 10 9 8 8 9 9 9 8 8 7 7 6 5
3 3 2 4 3 3 3 6 4 2 2 4 5 5 4 5 3 3 1 3 5 4 7 8 10 12 10 10 11 11 9 9 9 9 11 10 9 8 7 7 7 6 6 6
6 6 3 2 3 2 4 1 5 4 5 7 7 5 5 5 3 1 1 2 3 3 4 8 9 8 6 6 8 9 11 10 9 9 8 8 8 7 6 6 6 6 6 5
3 6 6 2 2 1 4 8 8 8 5 8 8 5 6 6 3 1 1 2 3 4 3 5 6 7 7 7 7 8 8 8 7 6 6 6 6 6 5 5 5 5 5 7
4 3 2 2 3 3 6 10 11 10 9 9 8 9 8 7 6 3 2 1 3 4 4 4 5 6 7 7 7 7 7 6 6 5 6 8 8 6 6 5 5 6 6 6

GFSCGP_925_spd_339.txt.gz
Wind_Speed
19 15 23 28 25 25 23 17 16 12 7 10 23 28 19 13 7 10 10 9 12 15 17 22 27 33 35 37 39 44 45 45 44 43 41 36 36 34 32 30 28 26 23 21
12 25 32 27 20 22 25 24 23 10 10 9 15 22 9 10 13 18 16 16 12 9 9 8 20 28 32 37 39 37 44 44 47 42 40 29 36 37 34 30 28 26 25 23
20 28 16 28 28 26 25 25 24 21 4 14 3 23 17 7 8 9 8 14 13 15 12 9 10 24 31 31 37 40 43 44 45 42 40 28 30 25 30 30 30 29 27 25
15 26 26 25 21 30 28 28 24 22 14 19 10 20 18 18 13 12 19 15 14 10 10 11 13 12 27 39 46 41 43 47 46 48 44 41 34 23 30 36 34 30 27 25
11 13 17 20 30 23 26 23 23 22 17 16 10 9 14 9 9 16 21 18 13 16 16 18 14 20 31 33 33 40 39 40 42 50 46 42 31 31 32 32 33 30 28 25
25 15 9 12 5 15 20 8 16 13 13 20 21 17 22 7 13 12 16 21 13 16 16 15 15 18 19 23 30 34 39 40 43 45 44 43 36 36 31 32 34 33 29 26
5 18 23 14 11 10 6 12 9 10 12 16 17 15 22 9 23 28 24 13 14 14 15 13 10 11 15 25 29 30 31 31 38 41 40 40 41 40 39 36 36 36 31 28
4 8 6 11 21 9 9 12 8 10 4 12 6 9 11 23 26 7 9 12 14 9 8 9 11 11 15 23 28 32 34 31 39 41 41 42 41 38 36 35 35 36 36 33
5 6 8 10 5 20 8 11 1 1 1 4 3 4 7 5 10 15 18 12 19 10 8 11 9 8 16 22 29 35 33 32 36 39 41 42 38 35 34 31 31 33 32 28
3 8 5 2 5 6 4 7 6 9 5 9 3 3 5 3 13 14 12 9 7 8 8 8 5 6 11 19 23 28 31 34 35 37 39 38 35 32 31 29 29 28 26 25
3 4 6 5 5 8 9 4 3 2 2 2 1 4 7 9 8 9 9 6 6 9 7 2 3 5 11 17 21 22 27 30 31 33 34 33 30 27 27 27 26 25 24 22
5 3 5 8 2 4 3 5 6 3 4 2 4 6 2 1 3 2 7 9 6 2 2 3 3 5 8 12 16 19 22 26 29 31 30 30 28 26 25 24 24 23 22 21
3 3 5 7 0 1 3 2 3 4 3 7 5 5 4 4 6 4 5 7 3 0 3 4 5 5 5 11 16 21 23 25 27 28 27 24 24 23 23 21 20 21 21 20
4 3 4 5 8 4 3 2 2 12 3 3 6 7 7 9 6 7 5 5 3 1 1 3 6 5 5 12 16 21 23 24 24 24 24 22 19 18 17 17 17 17 17 18
3 3 3 12 9 3 5 7 7 3 1 3 4 2 4 10 8 6 5 5 3 2 1 3 4 6 5 8 17 19 20 21 21 21 20 20 17 15 15 15 16 16 17 18
4 4 5 6 6 7 4 11 8 8 5 4 5 2 9 9 11 7 7 5 3 2 2 3 5 4 7 9 10 16 17 17 18 19 17 15 15 16 15 15 15 16 16 16
3 3 4 4 2 3 5 9 6 3 6 3 7 6 12 10 11 10 11 8 5 3 4 4 4 5 7 11 16 18 16 16 14 14 14 15 14 13 12 12 13 14 15 16
3 2 2 4 3 4 3 2 1 3 6 6 4 9 11 10 7 4 8 8 10 6 5 5 3 4 9 13 15 18 16 14 15 14 13 13 12 10 10 11 12 13 15 16
11 3 3 2 1 2 2 4 3 3 4 7 8 12 10 14 2 2 12 9 7 9 5 4 9 10 12 15 16 17 14 10 11 10 10 10 11 12 12 11 10 10 11 12
7 8 3 3 3 1 3 6 2 1 1 7 7 11 9 12 4 3 13 11 10 9 3 7 13 17 17 15 15 15 13 11 9 8 8 8 7 8 9 9 9 9 10 9
2 2 1 3 2 2 5 9 1 3 5 12 5 6 6 4 2 8 8 7 7 6 8 10 14 13 14 14 13 10 8 7 7 8 7 7 8 8 8 8 9 9 9 8
4 3 2 3 3 3 15 3 4 4 4 6 5 4 4 5 7 4 4 5 6 6 9 11 10 10 13 13 13 11 10 9 8 8 7 8 8 8 8 8 8 7 7 7
4 3 2 4 3 4 3 6 4 4 3 5 8 10 5 6 5 5 5 5 6 5 7 7 9 9 7 6 8 10 8 8 7 6 7 8 8 8 6 6 6 6 5 5
6 6 2 2 3 2 4 1 3 4 5 8 8 7 7 8 7 6 5 3 3 4 4 4 6 5 4 4 4 4 6 4 3 5 7 7 6 5 5 5 5 6 7 8
2 5 5 2 3 3 5 8 8 9 5 8 7 6 8 8 8 5 4 4 3 3 3 3 3 3 3 3 4 5 5 8 9 10 9 7 6 6 5 7 7 8 8 8
2 2 2 2 3 3 4 9 10 9 10 9 8 10 9 8 8 7 5 5 4 4 4 2 2 3 3 2 3 4 5 5 4 3 3 3 4 4 5 4 6 7 8 8

GFSCGP_925_spd_342.txt.gz
Wind_Speed
4 7 18 28 27 26 20 21 19 13 9 14 20 28 17 12 10 17 15 10 11 13 15 21 27 28 28 32 35 39 42 45 42 41 39 37 38 37 35 33 30 29 27 26
3 15 24 19 21 23 26 26 24 18 9 11 12 20 8 9 10 13 14 13 10 7 9 8 19 28 31 34 38 37 40 41 46 43 41 26 34 38 37 35 33 32 29 27
14 13 11 20 23 25 22 25 27 16 6 17 8 23 15 7 6 8 9 10 10 12 12 12 9 21 27 30 35 40 44 43 46 43 38 30 27 23 34 36 35 33 31 30
9 22 19 19 21 17 25 20 24 23 15 18 10 17 12 18 21 13 19 17 16 10 8 11 8 10 24 31 36 38 38 42 44 45 41 40 34 23 33 37 40 36 33 30
11 9 11 13 26 25 16 9 16 16 13 12 10 8 12 14 14 16 19 19 16 12 13 14 13 15 27 29 31 33 33 38 39 45 45 44 33 30 31 32 38 36 34 31
21 19 13 23 23 18 20 12 20 19 14 19 20 16 21 8 17 14 14 18 19 17 12 13 14 15 20 27 29 32 34 38 42 44 44 43 37 33 32 34 34 37 34 31
7 15 10 14 8 5 7 15 10 15 15 19 20 16 21 7 18 21 21 18 16 10 11 12 11 9 12 22 28 29 32 32 37 43 42 42 40 42 42 41 38 39 38 34
4 8 3 6 14 4 7 5 3 7 5 12 5 10 10 25 20 8 13 14 13 11 10 10 8 8 11 21 28 30 31 30 37 41 42 42 44 41 41 41 41 41 42 39
3 5 5 7 8 19 6 7 3 6 3 2 3 4 7 6 14 22 21 16 13 5 4 8 8 7 9 17 25 31 30 31 35 38 36 38 41 39 40 40 37 37 38 38
4 12 5 5 6 12 10 7 2 4 2 4 3 2 5 3 10 13 10 4 6 3 6 8 8 7 11 17 23 27 31 33 36 36 36 37 39 41 40 37 35 33 33 33
7 5 8 4 2 3 6 6 6 5 4 3 2 4 3 5 4 6 7 7 7 8 7 6 5 7 5 5 15 21 24 25 28 31 32 34 36 37 34 33 31 30 28 29
4 4 5 18 4 5 3 4 4 4 3 2 3 5 4 5 6 4 6 7 7 5 5 5 5 5 7 6 8 13 18 22 25 30 30 31 34 33 30 28 26 25 25 25
5 4 9 10 2 4 3 3 3 4 3 5 5 4 6 10 9 7 7 9 9 5 5 6 5 5 4 5 9 12 15 18 22 26 30 28 29 29 28 26 25 24 24 23
5 3 5 6 13 11 7 8 3 4 3 3 5 1 14 16 13 13 13 7 7 6 5 4 4 4 3 7 7 13 15 18 21 24 27 30 29 28 27 25 24 23 21 20
3 5 2 10 12 2 5 5 8 6 3 2 2 5 6 10 11 12 11 11 8 7 7 4 3 2 3 7 12 12 15 19 23 25 25 25 24 23 23 22 21 20 19 18
2 4 4 6 3 11 12 15 12 8 8 4 4 4 9 8 6 8 11 12 11 9 6 5 1 2 3 3 12 14 15 14 19 20 21 22 22 21 20 19 18 18 18 17
3 2 5 5 1 3 5 7 8 6 9 2 9 5 9 8 7 7 11 11 11 11 9 5 3 3 1 4 9 10 13 14 13 17 16 14 15 17 17 17 17 16 16 15
2 2 2 4 6 5 1 2 1 8 8 7 3 9 10 9 6 0 8 8 11 12 11 4 3 3 6 7 9 10 11 12 13 12 13 11 12 13 12 13 14 13 13 14
9 3 3 2 2 0 2 5 4 3 3 10 7 12 11 15 4 4 11 9 7 9 10 5 3 6 7 8 9 11 10 10 11 12 12 10 11 12 11 10 10 10 11 13
5 4 2 3 3 1 2 7 7 0 3 6 9 10 10 12 6 4 14 12 11 11 11 6 5 9 12 11 12 11 9 9 9 7 9 9 8 9 10 9 9 8 9 7
2 2 2 3 3 4 6 12 5 5 5 8 5 6 8 5 2 10 9 8 7 8 11 10 9 9 10 11 11 11 11 10 8 7 7 7 7 7 6 6 7 7 8 7
3 4 3 2 3 3 14 3 5 3 5 4 3 3 4 6 7 5 6 7 7 8 10 11 10 11 9 6 5 7 8 8 8 8 8 7 5 5 4 5 5 5 6 6
3 3 3 3 2 3 3 3 3 4 4 4 7 7 7 5 5 6 5 5 6 6 9 9 8 8 8 7 4 6 4 6 6 6 5 4 3 3 2 3 4 5 5 4
4 4 1 3 2 2 3 0 2 4 6 9 8 6 8 8 7 6 6 6 5 6 6 6 6 6 6 6 5 5 4 4 4 5 5 4 4 4 4 4 5 4 5 5
1 5 4 2 2 1 3 8 9 8 6 8 7 5 8 8 8 6 6 6 5 5 7 6 5 4 3 3 3 3 2 2 3 3 3 4 4 4 5 5 5 5 4 4
1 1 0 1 1 1 3 6 9 8 8 8 8 8 7 8 7 6 5 6 6 7 8 7 5 2 1 0 0 1 2 2 2 2 3 4 5 5 5 5 4 4 4 3

GFSCGP_925_spd_345.txt.gz
Wind_Speed
3 4 9 13 16 20 20 18 24 16 14 10 18 21 18 12 11 12 11 13 14 15 12 17 23 27 25 30 32 36 37 41 40 39 37 34 41 43 40 38 36 34 31 30
3 10 16 15 14 19 22 17 22 19 8 17 19 25 17 12 15 16 16 17 15 9 6 7 15 22 28 30 35 33 37 37 44 41 43 27 32 35 40 39 36 35 34 31
11 14 14 13 15 16 20 23 19 19 7 21 9 22 16 6 6 8 10 15 12 14 14 11 10 19 24 27 33 36 40 43 44 41 33 29 27 20 32 38 40 39 34 31
13 21 20 22 13 16 19 19 22 20 16 20 14 17 13 18 20 14 16 11 12 9 8 10 10 8 21 30 32 34 34 35 38 39 38 40 33 25 34 37 43 41 37 35
16 10 6 13 26 14 15 17 17 17 13 12 11 9 9 12 14 17 21 20 19 19 16 19 14 15 26 27 33 35 34 35 38 42 42 41 34 28 28 32 40 42 39 37
23 12 8 23 21 16 11 10 2 1 5 17 17 16 13 8 14 13 15 19 20 19 16 13 15 21 22 29 31 32 33 37 41 43 43 42 39 31 32 33 35 38 41 39
4 12 9 17 17 12 13 5 2 5 10 18 18 11 9 3 12 19 22 22 20 15 13 14 14 10 12 20 27 28 31 33 39 41 42 43 41 40 42 40 37 37 40 41
3 7 4 4 8 6 13 12 6 8 7 11 18 15 20 19 15 11 18 16 10 2 3 5 6 5 8 17 23 27 30 31 37 41 43 41 41 41 38 41 39 42 45 44
9 7 9 13 15 12 4 11 11 2 2 1 2 5 6 4 10 19 20 4 3 5 5 5 5 6 9 11 19 27 27 28 33 38 37 39 40 39 38 40 41 40 40 43
5 12 10 3 5 5 4 5 4 3 5 6 0 3 2 8 9 10 9 7 7 6 6 7 7 7 9 14 16 22 27 31 33 32 33 34 41 41 39 40 40 40 39 39
9 5 10 8 4 2 4 5 4 4 3 3 3 2 3 6 5 6 6 6 6 7 7 7 7 10 13 11 9 14 21 24 26 30 30 31 26 31 40 39 39 38 36 37
4 5 8 20 12 0 6 5 6 5 4 1 4 0 3 5 5 8 9 9 7 6 6 9 9 8 10 11 10 3 8 15 21 26 27 28 31 34 32 35 36 36 35 34
5 2 7 10 4 2 3 5 3 3 2 6 5 4 2 7 6 12 12 10 11 10 9 9 7 7 7 10 8 5 3 10 16 21 24 25 28 31 34 30 31 33 32 32
5 3 3 7 14 12 9 12 7 4 3 4 2 1 13 13 13 13 13 13 10 5 5 6 7 6 6 8 7 4 4 7 13 18 21 24 25 28 30 33 31 29 29 30
2 4 1 11 17 4 12 13 16 8 4 3 3 4 7 10 9 10 8 10 11 12 12 6 6 6 5 7 8 5 9 7 12 16 18 20 23 26 28 29 31 31 31 31
1 4 7 4 7 11 10 16 15 10 10 7 5 3 9 8 4 11 12 12 13 12 13 11 6 4 4 5 7 8 14 13 13 16 18 20 23 26 28 28 27 27 25 25
5 1 3 4 1 5 5 8 11 9 10 4 7 6 10 5 4 8 13 11 12 12 12 12 7 3 1 4 5 9 12 14 19 19 17 18 20 21 21 22 23 22 22 21
1 1 0 4 4 5 2 2 3 11 8 8 3 8 9 9 1 3 7 9 10 11 12 11 8 2 2 5 7 7 8 12 14 17 14 14 16 17 15 15 15 16 16 17
3 2 2 2 2 2 2 5 4 2 3 10 8 13 9 11 2 2 12 10 9 10 10 8 10 3 2 5 7 8 9 12 12 12 10 11 13 14 14 14 13 12 13 13
2 2 2 3 3 2 2 9 8 2 2 10 9 10 11 12 5 4 14 11 10 9 11 10 9 6 6 5 7 8 9 11 12 10 9 10 10 13 12 12 12 10 10 11
3 3 1 3 2 4 5 11 6 4 4 9 6 5 8 5 2 10 9 8 7 9 12 13 12 11 10 7 7 10 10 10 9 10 10 10 9 10 10 10 10 8 8 10
3 3 2 2 3 3 11 3 5 2 3 3 4 4 5 6 7 6 6 7 7 8 11 13 10 11 12 9 7 9 10 7 8 9 9 9 9 10 10 11 10 10 10 10
2 1 2 2 1 2 1 4 1 2 4 4 4 5 6 6 5 7 6 7 6 7 9 12 10 9 12 11 7 7 5 5 7 8 8 7 7 8 9 10 10 10 10 10
2 1 1 2 1 1 3 2 2 2 4 5 4 4 5 6 7 7 7 7 6 8 8 11 10 9 9 10 8 7 5 5 6 7 6 5 6 6 7 7 8 9 9 9
3 2 0 1 2 2 3 4 5 5 3 4 4 4 4 6 5 5 6 7 6 8 12 12 10 9 8 7 6 4 3 4 4 5 6 6 6 6 6 6 6 7 6 8
3 3 3 2 2 0 0 1 3 4 5 5 5 4 6 7 7 5 4 6 8 9 13 13 12 10 9 7 6 4 3 1 0 2 3 4 5 6 6 6 6 5 4 7